Weather History for Mosinee, WI

Change the Weather History Date:

Tuesday, March 19, 2013

  Actual Average Record
Temperature  
Mean Temperature 16 °F -  
Max Temperature 21 °F 37 °F 73 °F (2012)
Min Temperature 10 °F 19 °F 10 °F (2013)
Degree Days  
Heating Degree Days 50    
Moisture  
Dew Point 8 °F    
Average Humidity 77    
Maximum Humidity 93    
Minimum Humidity 58    
Precipitation  
Precipitation 0.00 in - - ()
Sea Level Pressure  
Sea Level Pressure 29.73 in    
Wind  
Wind Speed 18 mph (West)    
Max Wind Speed 23 mph    
Max Gust Speed 36 mph    
Visibility 8 miles    
Events Snow    
Averages and records for this station are not official NWS values.
T = Trace of Precipitation, MM = Missing Value Source: NWS Daily Summary

Daily Weather History Graph

Daily Weather History Graph

Search for Another Location

Airport:

Trip Planner

Search our weather history database for the weather conditions in past years. The results will help you decide how hot, cold, wet, or windy it might be!

Date:

Astronomy

Mar. 19, 2013 Rise Set
Actual Time 7:03 AM CDT 7:10 PM CDT
Civil Twilight 6:34 AM CDT 7:39 PM CDT
Nautical Twilight 5:59 AM CDT 8:13 PM CDT
Astronomical Twilight 5:24 AM CDT 8:48 PM CDT
Moon 11:39 AM CDT (3/19) 2:10 AM CDT (3/19)
Length of Visible Light 13h 05m
Length of Day
12h 07m
Waxing Crescent, 50% of the Moon is Illuminated
Mar 19
Waxing Crescent
Mar 19
First Quarter
Mar 27
Full
Apr 2
Last Quarter
Apr 10
New

Hourly Weather History & Observations

Time (CDT) Temp. Windchill Dew Point Humidity Pressure Visibility Wind Dir Wind Speed Gust Speed Precip Events Conditions
12:15 AM 14.0 °F -2.5 °F 12.2 °F 93% 29.58 in 2.0 mi West 17.3 mph 21.9 mph N/A Snow Light Snow
12:35 AM 14.0 °F -3.4 °F 12.2 °F 93% 29.58 in 4.0 mi West 19.6 mph 26.5 mph N/A Snow Light Snow
12:55 AM 14.0 °F -2.0 °F 12.2 °F 93% 29.58 in 7.0 mi West 16.1 mph 23.0 mph N/A Snow Light Snow
1:15 AM 14.0 °F -1.4 °F 12.2 °F 93% 29.58 in 7.0 mi West 15.0 mph 24.2 mph N/A Snow Light Snow
1:35 AM 14.0 °F -2.0 °F 12.2 °F 93% 29.58 in 7.0 mi WSW 16.1 mph - N/A Snow Light Snow
1:55 AM 14.0 °F -2.0 °F 12.2 °F 93% 29.58 in 7.0 mi West 16.1 mph 26.5 mph N/A Snow Light Snow
2:15 AM 14.0 °F -4.3 °F 10.4 °F 86% 29.57 in 5.0 mi West 21.9 mph 28.8 mph N/A Snow Light Snow
2:35 AM 14.0 °F -3.9 °F 10.4 °F 86% 29.58 in 5.0 mi West 20.7 mph 26.5 mph N/A Snow Light Snow
2:55 AM 14.0 °F -3.4 °F 10.4 °F 86% 29.58 in 5.0 mi West 19.6 mph 28.8 mph N/A Snow Light Snow
3:15 AM 14.0 °F -3.9 °F 10.4 °F 86% 29.58 in 7.0 mi West 20.7 mph 26.5 mph N/A Snow Light Snow
3:35 AM 14.0 °F -4.7 °F 10.4 °F 86% 29.59 in 5.0 mi West 23.0 mph 29.9 mph N/A Snow Light Snow
3:55 AM 14.0 °F -2.5 °F 10.4 °F 86% 29.59 in 5.0 mi West 17.3 mph 29.9 mph N/A Snow Light Snow
4:15 AM 14.0 °F -2.0 °F 10.4 °F 86% 29.60 in 5.0 mi West 16.1 mph 27.6 mph N/A Snow Light Snow
4:35 AM 12.2 °F -5.3 °F 10.4 °F 92% 29.60 in 5.0 mi West 18.4 mph 27.6 mph N/A Snow Light Snow
4:55 AM 12.2 °F -5.8 °F 8.6 °F 85% 29.61 in 7.0 mi West 19.6 mph 25.3 mph N/A Snow Light Snow
5:15 AM 12.2 °F -5.8 °F 8.6 °F 85% 29.61 in 7.0 mi West 19.6 mph 26.5 mph N/A Snow Light Snow
5:35 AM 12.2 °F -3.7 °F 8.6 °F 85% 29.62 in 10.0 mi West 15.0 mph 24.2 mph N/A   Overcast
5:45 AM 10.4 °F -8.6 °F 6.8 °F 85% 29.62 in 7.0 mi West 20.7 mph 26.5 mph N/A   Overcast
6:45 AM 10.4 °F -8.6 °F 6.8 °F 85% 29.66 in 7.0 mi West 20.7 mph 28.8 mph N/A   Overcast
7:45 AM 10.4 °F -6.0 °F 6.8 °F 85% 29.69 in 5.0 mi West 15.0 mph 24.2 mph N/A   Overcast
8:45 AM 10.4 °F -7.2 °F 6.8 °F 85% 29.71 in 5.0 mi West 17.3 mph 24.2 mph N/A   Overcast
9:45 AM 12.2 °F -6.7 °F 6.8 °F 79% 29.73 in 7.0 mi West 21.9 mph 29.9 mph N/A   Haze
10:45 AM 12.2 °F -5.8 °F 6.8 °F 79% 29.77 in 7.0 mi WNW 19.6 mph 29.9 mph N/A   Haze
11:45 AM 15.8 °F -0.2 °F 8.6 °F 73% 29.78 in 10.0 mi West 17.3 mph 28.8 mph N/A   Scattered Clouds
1:45 PM 19.4 °F 2.8 °F 8.6 °F 63% 29.82 in 10.0 mi West 21.9 mph 35.7 mph N/A   Clear
2:45 PM 19.4 °F 2.5 °F 8.6 °F 63% 29.82 in 10.0 mi West 23.0 mph 33.4 mph N/A   Clear
3:45 PM 21.2 °F 4.9 °F 8.6 °F 58% 29.84 in 10.0 mi West 23.0 mph 34.5 mph N/A   Clear
4:45 PM 21.2 °F 5.6 °F 8.6 °F 58% 29.86 in 10.0 mi West 20.7 mph 33.4 mph N/A   Clear
5:45 PM 19.4 °F 2.8 °F 8.6 °F 63% 29.89 in 10.0 mi West 21.9 mph 32.2 mph N/A   Clear
6:45 PM 19.4 °F 3.6 °F 6.8 °F 58% 29.91 in 10.0 mi West 19.6 mph 24.2 mph N/A   Clear
7:45 PM 17.6 °F 2.7 °F 6.8 °F 63% 29.93 in 10.0 mi West 16.1 mph 23.0 mph N/A   Clear
8:45 PM 17.6 °F 0.9 °F 5.0 °F 58% 29.93 in 10.0 mi West 20.7 mph 27.6 mph N/A   Clear
9:50 PM 15.8 °F -0.2 °F 5.0 °F 62% 29.94 in 10.0 mi West 17.3 mph 24.2 mph N/A   Clear
10:15 PM 17.6 °F 1.7 °F 5.0 °F 58% 29.94 in 10.0 mi West 18.4 mph 24.2 mph N/A   Clear
10:35 PM 15.8 °F 0.9 °F 5.0 °F 62% 29.95 in 10.0 mi West 15.0 mph 21.9 mph N/A   Clear
10:55 PM 15.8 °F 3.4 °F 5.0 °F 62% 29.95 in 10.0 mi West 10.4 mph 19.6 mph N/A   Clear
11:15 PM 14.0 °F -1.4 °F 5.0 °F 67% 29.95 in 10.0 mi West 15.0 mph - N/A   Clear
11:35 PM 14.0 °F -1.4 °F 5.0 °F 67% 29.95 in 10.0 mi West 15.0 mph 21.9 mph N/A   Clear
11:55 PM 14.0 °F -0.8 °F 3.2 °F 62% 29.95 in 10.0 mi West 13.8 mph - N/A   Clear